Regional Weather Roundup
Issued by NWS Lake Charles, LA

Home | Current Version | Previous Version | Text Only | Print | Product List | Glossary On
Versions: 1 2 3 4 5 6 7 8 9 10 11 12 13 14 15 16 17 18 19 20 21 22 23 24 25 26 27 28 29 30 31 32 33 34 35 36 37 38 39 40 41 42 43 44 45 46 47 48 49 50
000
ASUS44 KLCH 271010
RWRLCH
RWRLCH
REGIONAL WEATHER ROUNDUP
NATIONAL WEATHER SERVICE LAKE CHARLES LA
400 AM CST SAT DEC 27 2014

Note: "fair" indicates few or no clouds below 12,000 feet with no
significant weather and/or obstructions to visibility.


ACROSS SOUTHEAST TEXAS

CITY           SKY/WX    TMP DP  RH WIND       PRES   REMARKS
BEAUMONT       CLOUDY    66  64  93 E9        30.01S FOG
BEAUMONT CITY    N/A     64  64  99 E3        30.02S FOG
ORANGE         CLOUDY    65  65  99 E5        30.04S FOG
JASPER         CLOUDY    61  60  97 E3        30.05S FOG
$$

ACROSS CENTRAL LOUISIANA

CITY           SKY/WX    TMP DP  RH WIND       PRES   REMARKS
LEESVILLE      CLOUDY    61  59  94 SE7       30.04S
FULLERTON      CLOUDY    63  59  87 VRB3      30.02F
ALEXANDRIA INT CLOUDY    59  57  93 SE8       30.05F
ESLER FIELD    CLOUDY    62  58  86 E3        30.07S
DERIDDER       CLOUDY    61  60  96 CALM      30.06S
OAKDALE        CLOUDY    61  59  93 CALM      30.05F
OPELOUSAS      CLOUDY    60  58  95 E6        30.07S
$$

ACROSS SOUTHWEST AND SOUTH CENTRAL LOUISIANA

CITY           SKY/WX    TMP DP  RH WIND       PRES   REMARKS
SULPHUR        CLOUDY    64  63  97 E7        30.04S
LAKE CHARLES   CLOUDY    63  61  93 SE9       30.04R
CHENNAULT INT  NOT AVBL
CAMERON PHI      N/A     63  61  94 E9        30.06S FOG
DEQUINCY       CLOUDY    63  63 100 E3        30.04S
JENNINGS       CLOUDY    62  61  97 SE9       30.05F
LAFAYETTE      CLOUDY    62  60  93 CALM      30.07S
NEW IBERIA     LGT RAIN  63  60  90 E7        30.07F
ABBEVILLE      CLOUDY    62  61  97 E8        30.06F
PATTERSON      CLOUDY    61  59  94 E7        30.09F
SALT POINT       N/A     73  62  68 E5        30.06F
$$

SELECTED SITES ACROSS THE REGION

CITY           SKY/WX    TMP DP  RH WIND       PRES   REMARKS
HOUSTON BUSH   CLOUDY    69  67  93 S6        29.98S
HOUSTON HOBBY  CLOUDY    69  68  96 SE6       29.97F
GALVESTON      CLOUDY    66  66 100 SE9       30.00S
COLLEGE STAT   CLOUDY    66  65  96 SE8       29.96S
CONROE         CLOUDY    67  65  93 SE6       29.99S FOG
HUNTSVILLE     RAIN      65  64  97 CALM      29.98F FOG
LUFKIN         LGT RAIN  65  61  87 SE6       30.01S FOG
SHREVEPORT     CLOUDY    59  58  96 SE7       30.03S FOG
MONROE         CLOUDY    58  56  93 SE6       30.09F
NATCHEZ MS     CLOUDY    59  55  88 SE12      30.09F
BATON ROUGE    CLOUDY    60  58  92 E9        30.10F
N.O. INTL ARPT LGT RAIN  66  62  87 E5        30.12F
SLIDELL        CLOUDY    66  61  84 SE5       30.12R
$$

MARINE REPORTS

STATION/POSITION TIME  TEMP    WIND        PRES    VSBY  WAVE
                       AIR SEA DIR/SP/G                  HT/PER
                 (UTC) (F)     (DEG/KT/KT) (MB)    (MI)  (FT/S)
BUOY 30 S HIGH I 1000   64 61  140/  8/ 10 1015.6R         4/ 6
SEA RIM ST PARK  1000   62     110/  8/ 10 1016.8R
PORT ARTHUR      1000      58  130/  1/  5 1016.5F
SABINE PASS N    1000   62 60  130/  6/  9 1016.3F
TEXAS POINT      NOT AVBL
CALCASIEU PASS   1000   62 60  120/ 10/ 12   N/A
LK CHARLES BEACH 1000   63 57              1017.2R
MARSH ISLAND     NOT AVBL
FRESH WATER LOCK 1000   63 58   80/  8/ 11 1017.6S
AMERADA PASS     1000   64 52   60/  3/  6 1018.2F
$$


USA.gov is the U.S. government's official web portal to all federal, state and local government web resources and services.